User: anonymous   Login
Location: Franzen
(48.6167°N, 15.3833°E)
Time: 05:29:49
(UTC+00:00)
Language:

Meteor 2-6 Rocket - Orbit

View from above orbital plane
View from above orbital plane
View from above satellite
View from above satellite

Ground track
Ground track

The orbit data is extracted from the following two-line orbital elements,

1 11963U 80073B   21171.43961946 -.00000011  00000-0 -12671-4 0  9997
2 11963  81.2757 145.0727 0073216 253.6047 105.7067 14.09733493 96569
Epoch (UTC): 20 June 2021 10:33:03
Eccentricity: 0.0073216
inclination: 81.2757°
perigee height: 807 km
apogee height: 913 km
right ascension of ascending node: 145.0727°
argument of perigee: 253.6047°
revolutions per day: 14.09733493
mean anomaly at epoch: 105.7067°
orbit number at epoch: 9656

The dashed part of the orbit path shows where the satellite is in the earth's shadow,  

DLR